This is the latest recevied weather packets stored in our database for station/object IW2LSY-11. If no packets are shown the sender has not sent any weather packets the latest 10 day(s).
| Time | Temp. | Humidity | Pressure | Rain* | Wind** | Luminosity | Snow |
|---|---|---|---|---|---|---|---|
| 1777721409 | 22.78° C | 29% | 1022.9 hPa | - | - | 478 W/m² | - |
| 1777720810 | 22.78° C | 29% | 1023.1 hPa | - | - | 476 W/m² | - |
| 1777720210 | 22.78° C | 31% | 1023.4 hPa | - | - | 471 W/m² | - |
| 1777719610 | 22.22° C | 32% | 1023.7 hPa | - | - | 466 W/m² | - |
| 1777719010 | 22.22° C | 33% | 1023.8 hPa | - | - | 460 W/m² | - |
| 1777718410 | 21.67° C | 34% | 1024 hPa | - | - | 456 W/m² | - |
| 1777717810 | 21.67° C | 34% | 1024.1 hPa | - | - | 455 W/m² | - |
| 1777717210 | 21.67° C | 34% | 1024.3 hPa | - | - | 451 W/m² | - |
| 1777716611 | 21.11° C | 35% | 1024.5 hPa | - | - | 443 W/m² | - |
| 1777716011 | 20° C | 36% | 1024.5 hPa | - | - | 440 W/m² | - |
| 1777715411 | 20.56° C | 36% | 1024.8 hPa | - | - | 439 W/m² | - |
| 1777714812 | 20.56° C | 35% | 1025 hPa | - | - | 432 W/m² | - |
| 1777714212 | 20° C | 39% | 1025.2 hPa | - | - | 428 W/m² | - |
| 1777713613 | 18.89° C | 38% | 1025.3 hPa | - | - | 425 W/m² | - |
| 1777713013 | 20° C | 38% | 1025.4 hPa | - | - | 423 W/m² | - |
| 1777712412 | 18.89° C | 39% | 1025.5 hPa | - | - | 418 W/m² | - |
| 1777711812 | 18.33° C | 40% | 1025.7 hPa | - | - | 417 W/m² | - |
| 1777711213 | 18.33° C | 40% | 1025.8 hPa | - | - | 420 W/m² | - |
| 1777710613 | 18.33° C | 40% | 1026 hPa | - | - | 421 W/m² | - |
| 1777710013 | 17.22° C | 40% | 1026.1 hPa | - | - | 422 W/m² | - |
| 1777709413 | 17.78° C | 42% | 1026.2 hPa | - | - | 423 W/m² | - |
| 1777708813 | 17.78° C | 41% | 1026.4 hPa | - | - | 424 W/m² | - |
| 1777708213 | 17.78° C | 41% | 1026.5 hPa | - | - | 423 W/m² | - |
| 1777707614 | 18.33° C | 41% | 1026.7 hPa | - | - | 425 W/m² | - |
| 1777707014 | 18.89° C | 39% | 1026.8 hPa | - | - | 427 W/m² | - |
* Rain since midnight (hover to see other rain measurements)
** Current wind speed in m/s (hover to see current wind gust speed)